Wetbulb
55.41 55.27 55.14 55.24 55.16 55.05 55.09 55.21 54.21 53.97 54.92 54.98 54.86 54.76 54.48 54.28 53.45 50.45 45.71 48.36 50.92 57.45 60.57 53.72 51.34 49.95 47.83 45.66 46.51 46.45 37.86 35.28 37.71 40.54 41.65 44.65 43.95 46.79 48.27 49.03 51.09 53.11 57.12 61.07 69.00
55.61 55.30 55.02 54.90 54.89 54.76 54.78 54.13 55.00 54.68 53.70 54.05 54.12 53.96 53.76 53.72 49.19 45.64 51.31 56.66 57.49 59.93 48.02 48.83 46.50 47.38 43.76 44.06 44.58 43.44 36.54 39.77 43.73 43.49 41.69 45.48 45.14 45.31 46.55 46.84 49.62 51.87 56.38 67.43 68.59
55.51 55.76 55.95 55.49 55.00 54.60 54.64 53.96 54.15 54.65 54.53 54.29 53.47 53.63 53.50 52.54 44.10 43.15 57.03 57.67 59.09 60.12 47.30 47.63 47.07 45.26 41.87 42.10 42.93 40.82 39.12 43.89 45.49 46.82 44.49 43.83 45.36 46.41 44.99 44.31 47.83 48.96 51.58 60.12 64.90
55.92 55.80 56.35 56.13 55.77 55.06 54.33 53.85 53.70 54.07 54.82 54.34 53.96 53.17 53.26 49.03 32.48 46.69 62.73 60.58 59.97 57.79 47.75 46.24 44.09 42.03 40.53 40.07 42.83 39.94 43.42 44.91 45.91 46.99 46.00 44.57 45.40 45.09 45.10 46.42 48.69 49.38 50.56 52.04 62.06
55.62 55.74 55.81 55.93 56.09 55.19 54.57 54.06 53.63 53.46 53.42 54.19 53.39 52.34 49.71 42.03 40.71 46.42 64.87 60.91 56.64 54.36 46.32 44.56 42.31 41.65 40.34 41.48 42.42 40.27 43.14 44.71 45.89 45.39 44.76 45.40 43.86 44.32 44.65 48.14 49.15 48.87 49.48 49.34 51.95
55.47 55.21 55.23 55.38 55.64 55.64 54.74 54.11 53.33 53.09 53.19 53.91 53.28 52.02 46.20 35.65 45.96 54.78 60.19 55.86 54.76 48.84 45.33 44.80 43.22 45.16 42.50 41.23 41.21 42.34 42.97 43.94 43.73 43.66 43.54 42.97 44.05 44.58 46.17 48.62 48.63 48.50 48.05 47.94 47.94
55.65 55.12 55.14 55.06 55.17 55.33 55.30 53.96 53.40 52.83 53.11 53.70 53.82 51.03 46.06 41.21 51.10 55.04 54.85 51.07 52.61 48.73 45.77 45.32 46.36 45.83 45.19 40.29 41.36 42.66 40.37 42.13 42.41 43.55 43.47 44.36 42.78 42.14 47.69 48.56 47.50 47.10 47.33 47.49 47.87
55.04 54.79 54.51 54.78 54.80 54.93 54.73 53.95 52.78 52.77 52.95 53.68 54.66 50.03 42.07 50.86 51.11 49.74 49.31 48.36 50.59 48.51 47.61 47.12 46.44 44.24 43.12 43.33 42.51 39.72 39.12 35.87 41.94 43.83 44.73 44.77 39.00 45.41 47.45 47.02 45.81 46.47 46.50 47.09 47.27
55.02 54.20 53.81 53.84 54.23 54.35 54.59 53.83 53.18 53.34 53.72 54.13 50.84 47.16 40.56 54.35 52.66 53.57 49.78 47.38 48.87 47.49 47.52 49.39 46.18 43.10 43.18 39.11 35.89 36.90 32.97 35.25 40.00 43.41 42.88 40.92 37.10 43.84 45.26 44.76 44.39 44.79 45.66 46.49 46.68
54.54 53.52 53.94 53.89 54.10 54.08 54.02 52.76 52.63 54.22 53.68 52.64 51.65 44.01 46.63 48.56 53.57 51.60 50.50 49.23 46.52 45.57 44.79 43.22 42.15 39.72 37.30 36.40 30.94 33.83 33.66 36.29 37.48 40.92 40.22 37.13 38.70 42.62 43.85 43.87 44.08 44.33 44.65 45.30 46.46
55.06 54.77 53.30 53.89 53.93 53.78 50.49 48.98 45.82 44.10 47.73 43.13 44.24 45.62 49.78 52.93 52.47 49.43 51.33 49.42 47.55 43.81 38.82 41.43 37.60 35.53 38.65 40.18 40.30 38.82 36.94 36.57 39.18 41.72 39.05 38.16 38.12 41.44 43.25 42.56 43.20 44.36 43.25 44.15 45.74
54.61 54.51 53.24 53.89 53.91 53.61 50.30 43.52 47.93 46.59 42.78 47.13 47.41 48.15 51.06 52.31 48.64 47.05 50.54 44.92 42.87 37.76 40.16 38.38 35.32 40.95 42.29 41.55 40.07 38.45 36.03 35.91 39.17 41.37 39.10 38.59 38.94 41.15 42.53 42.52 43.01 43.72 43.85 43.40 44.67
54.04 54.00 53.23 53.75 53.70 50.71 47.26 46.07 50.11 48.70 40.70 45.76 47.34 46.41 48.86 50.94 48.74 44.82 47.23 44.52 40.96 36.77 36.60 35.95 39.32 43.16 41.79 39.49 38.67 36.85 35.24 36.10 37.28 40.03 39.48 38.12 36.13 38.14 42.29 42.61 43.92 44.24 44.45 44.83 45.38
53.66 53.47 53.43 53.46 48.07 47.53 45.60 50.15 50.51 49.31 39.64 43.40 46.18 48.45 50.65 50.16 45.70 49.45 47.70 47.09 41.15 38.04 37.92 36.71 41.14 41.29 39.30 38.91 39.55 33.56 40.58 40.84 39.43 36.18 31.52 36.70 28.73 35.01 38.64 40.61 41.89 43.88 45.00 45.23 45.52
52.73 53.20 53.37 53.23 47.42 43.99 49.82 48.67 48.61 46.75 30.83 46.10 46.66 53.17 50.16 45.20 46.11 42.52 47.52 46.70 41.32 40.04 39.07 36.82 38.19 38.81 37.45 39.26 41.16 38.46 41.55 39.42 39.01 34.82 31.73 32.04 29.62 33.92 37.01 38.42 40.40 45.02 46.03 46.27 46.47
52.09 52.58 52.84 49.84 49.74 48.61 50.12 49.80 47.42 38.55 33.60 42.17 47.06 46.67 44.49 45.12 46.01 45.25 44.23 47.42 45.62 40.73 39.53 39.29 42.92 41.62 41.26 43.54 43.14 43.50 38.49 36.40 33.54 31.33 26.27 30.96 31.09 30.34 34.53 37.72 43.48 45.09 44.72 45.45 45.57
52.01 51.93 50.90 49.87 46.65 50.88 49.00 46.90 37.79 34.00 47.22 43.54 42.09 44.57 44.01 42.56 44.24 43.85 40.82 39.24 37.04 33.34 32.09 37.14 37.73 40.78 43.25 38.65 42.27 38.47 32.71 26.33 25.67 25.26 25.82 33.11 31.52 32.85 38.34 44.23 44.21 42.96 43.87 44.49 44.82
51.00 50.72 49.33 49.97 49.30 50.31 47.56 42.82 33.39 42.59 43.38 48.87 44.65 44.33 42.07 43.72 42.97 43.33 40.02 37.04 39.66 38.27 33.42 32.20 30.47 39.90 44.39 40.01 37.76 35.96 33.29 27.09 22.83 23.03 25.88 34.09 29.39 34.03 43.96 44.98 45.69 46.30 45.75 46.67 45.32
49.72 46.06 47.66 49.40 51.11 49.05 45.28 35.79 37.41 43.57 46.72 46.25 43.92 40.07 41.07 44.47 42.84 42.30 40.57 39.90 42.84 41.52 36.57 34.13 35.14 43.67 44.98 44.14 41.72 36.95 32.87 34.22 29.66 29.98 27.93 29.88 34.13 40.45 43.71 44.80 45.70 46.38 47.33 46.88 47.36
45.26 45.51 48.54 52.36 51.92 49.29 43.20 40.42 44.01 48.11 48.77 47.72 40.27 42.54 39.27 40.39 40.16 39.74 40.29 44.59 43.79 44.88 43.48 40.36 34.43 41.94 44.04 43.51 42.82 38.88 40.86 32.54 30.50 24.11 23.37 27.49 30.17 31.72 39.60 40.99 42.93 42.59 43.04 45.32 47.23
42.60 45.56 50.74 52.45 51.45 47.71 39.88 43.42 46.30 49.27 49.71 45.43 42.16 40.21 39.73 39.71 40.46 38.28 39.70 42.21 44.13 42.62 43.16 39.25 35.92 36.56 39.69 36.81 35.01 35.59 32.81 33.80 32.81 29.79 24.21 24.17 28.27 37.23 40.11 41.32 41.02 41.05 42.56 43.51 45.43
40.40 42.20 50.95 51.38 43.52 45.71 42.53 46.44 47.54 48.80 48.80 46.70 44.02 43.48 41.75 40.23 39.37 38.60 39.62 41.78 45.19 43.52 38.25 38.45 35.23 31.36 33.61 37.46 39.26 36.22 34.14 32.93 26.89 27.26 30.89 32.89 30.54 41.42 40.93 40.78 41.30 41.12 42.97 44.15 44.72
39.95 41.48 50.29 50.13 41.20 42.86 46.75 47.03 47.59 45.20 44.29 43.17 41.53 42.95 41.70 40.19 37.43 40.86 41.59 44.41 45.76 43.49 39.63 38.63 31.49 26.28 26.45 32.54 36.36 34.29 35.53 34.90 32.73 30.05 30.75 26.93 28.34 41.83 41.75 40.79 40.85 40.89 42.38 43.66 44.52
42.08 41.75 42.44 45.68 44.59 41.53 44.05 43.99 42.13 45.62 42.85 42.60 41.03 41.74 39.03 36.82 36.85 37.76 39.81 43.24 44.86 43.96 47.19 42.05 32.72 29.39 24.54 25.67 31.66 30.66 33.59 34.62 31.38 29.11 26.53 28.03 30.92 36.63 39.22 39.67 40.96 40.89 41.52 41.14 42.25
42.97 39.96 40.81 38.20 38.50 39.35 40.49 40.19 41.07 40.11 42.61 42.50 39.39 39.33 37.63 33.45 34.27 34.30 38.11 40.10 43.41 44.29 38.68 35.87 29.70 31.02 31.87 33.88 34.34 33.28 33.33 33.37 31.26 30.84 27.84 29.84 32.39 34.73 37.11 38.36 39.19 40.24 41.28 41.40 41.42
39.66 38.64 41.85 40.44 41.22 39.67 39.23 40.83 40.75 40.08 40.50 39.94 37.90 38.33 36.80 34.20 35.38 34.20 35.36 35.06 35.96 38.37 34.79 34.04 29.39 31.41 30.78 34.45 34.19 32.66 34.23 34.37 33.75 33.74 32.51 33.54 32.85 39.01 39.89 38.94 38.63 39.50 40.40 40.70 40.88
41.95 42.63 40.49 40.49 40.30 38.32 38.34 40.87 41.23 40.24 41.19 41.84 40.18 37.74 36.40 37.16 38.12 37.41 37.68 37.49 38.16 36.40 33.73 32.40 31.08 28.57 26.70 31.74 31.32 26.73 30.81 32.49 33.10 34.21 33.51 29.47 33.65 39.72 39.45 39.68 38.70 39.00 40.35 40.89 40.81
MSLP
1016.53 1016.12 1015.82 1015.58 1015.17 1015.05 1014.72 1014.48 1014.46 1014.44 1014.46 1014.49 1014.46 1014.45 1014.35 1014.33 1014.27 1014.28 1013.11 1010.39 1010.24 1009.84 1009.99 1010.02 1010.52 1011.55 1011.66 1011.34 1011.26 1011.39 1012.00 1012.02 1011.30 1010.43 1009.36 1008.62 1008.17 1007.40 1006.81 1006.61 1005.96 1006.03 1006.22 1006.25 1006.56
1016.44 1016.04 1015.67 1015.35 1015.05 1014.93 1014.60 1014.32 1014.25 1014.20 1014.27 1014.23 1014.26 1014.29 1014.31 1014.21 1014.01 1012.86 1009.57 1009.34 1009.55 1009.70 1009.89 1009.85 1010.52 1011.30 1012.29 1011.64 1011.23 1011.31 1011.52 1010.94 1010.14 1009.53 1008.94 1008.67 1008.30 1007.83 1007.52 1006.75 1006.37 1006.16 1006.50 1006.67 1007.06
1016.23 1015.88 1015.53 1015.16 1014.85 1014.69 1014.51 1014.23 1014.09 1014.02 1013.94 1014.04 1014.12 1014.19 1014.20 1014.18 1013.58 1008.85 1006.66 1007.71 1008.76 1009.52 1009.53 1009.51 1010.05 1010.65 1011.58 1011.32 1011.16 1010.94 1010.73 1010.18 1009.41 1009.03 1008.70 1008.62 1008.20 1007.84 1007.62 1007.20 1006.73 1006.66 1006.69 1007.19 1007.75
1016.04 1015.64 1015.32 1015.01 1014.72 1014.48 1014.32 1014.06 1013.90 1013.82 1013.69 1013.77 1013.92 1014.07 1014.10 1014.05 1011.29 1006.39 1005.91 1006.44 1008.09 1009.27 1009.39 1009.82 1010.52 1010.84 1011.14 1011.02 1010.66 1010.80 1010.16 1009.67 1008.89 1008.30 1009.02 1008.97 1008.47 1008.33 1007.92 1007.44 1006.79 1007.12 1006.76 1007.07 1007.73
1015.86 1015.50 1015.14 1014.82 1014.53 1014.27 1014.10 1013.83 1013.66 1013.56 1013.49 1013.46 1013.66 1013.85 1013.89 1013.33 1009.79 1006.35 1005.85 1006.62 1008.15 1008.72 1008.77 1009.35 1009.82 1010.22 1010.45 1010.61 1010.54 1010.43 1010.02 1009.43 1008.88 1008.78 1008.57 1008.57 1008.77 1008.54 1008.05 1007.31 1006.79 1006.83 1007.13 1007.28 1007.60
1015.61 1015.23 1014.89 1014.57 1014.26 1013.93 1013.83 1013.65 1013.42 1013.28 1013.22 1013.14 1013.35 1013.64 1013.68 1011.83 1007.04 1006.31 1006.17 1007.13 1007.57 1008.21 1008.58 1008.67 1008.94 1009.04 1009.79 1009.89 1010.07 1009.64 1009.46 1009.23 1009.01 1008.69 1008.70 1008.56 1007.83 1008.10 1007.50 1006.78 1006.90 1006.98 1007.14 1007.12 1007.56
1015.33 1014.93 1014.55 1014.28 1013.98 1013.64 1013.38 1013.26 1013.17 1013.02 1012.96 1012.87 1013.00 1013.31 1012.88 1009.29 1007.00 1006.99 1007.03 1007.02 1007.18 1007.31 1007.95 1008.37 1008.52 1008.72 1009.19 1009.57 1009.23 1009.34 1009.44 1009.17 1008.81 1008.40 1008.37 1008.10 1008.24 1007.76 1006.83 1006.68 1006.99 1007.12 1007.12 1007.27 1007.29
1015.03 1014.63 1014.27 1013.98 1013.65 1013.32 1013.05 1012.80 1012.64 1012.63 1012.57 1012.59 1012.80 1012.96 1011.22 1007.46 1007.22 1007.07 1007.03 1007.37 1007.60 1007.54 1007.86 1007.98 1008.26 1008.60 1008.78 1009.07 1009.55 1009.60 1009.56 1009.04 1008.09 1007.88 1007.54 1007.88 1007.97 1007.15 1006.64 1006.98 1007.32 1007.36 1007.41 1007.25 1007.04
1014.72 1014.33 1014.00 1013.70 1013.32 1013.02 1012.73 1012.55 1012.24 1011.99 1012.00 1012.26 1012.73 1012.71 1009.51 1006.85 1006.87 1006.13 1006.49 1006.92 1007.72 1007.80 1008.04 1008.10 1008.39 1008.84 1009.33 1009.76 1010.18 1009.81 1009.77 1009.11 1008.15 1007.61 1007.72 1007.87 1008.12 1007.27 1007.02 1007.33 1007.58 1007.45 1007.11 1006.89 1006.65
1014.32 1013.97 1013.60 1013.28 1012.99 1012.73 1012.47 1012.19 1011.99 1011.68 1011.95 1012.35 1012.36 1012.54 1008.53 1006.14 1005.41 1005.70 1006.28 1006.55 1007.34 1008.29 1008.40 1008.57 1008.91 1009.41 1009.75 1010.01 1010.16 1010.10 1009.91 1009.20 1008.54 1008.13 1007.90 1008.11 1008.28 1007.79 1007.35 1007.39 1007.40 1007.32 1006.70 1006.67 1006.72
1013.93 1013.59 1013.19 1012.89 1012.66 1012.47 1012.57 1012.41 1012.45 1012.09 1011.45 1009.95 1009.29 1008.52 1006.66 1005.41 1004.69 1005.50 1005.90 1006.38 1006.97 1007.96 1008.38 1008.61 1008.92 1009.24 1009.26 1009.46 1009.40 1009.69 1009.76 1009.53 1008.77 1008.24 1008.20 1008.26 1008.52 1007.88 1007.27 1007.46 1007.44 1007.25 1006.96 1006.76 1006.37
1013.62 1013.18 1012.77 1012.43 1012.12 1012.15 1012.42 1012.08 1009.53 1009.12 1009.35 1008.54 1008.33 1007.74 1006.47 1005.76 1005.07 1005.14 1005.26 1006.35 1006.80 1007.69 1007.96 1008.79 1008.83 1008.73 1008.79 1009.10 1009.39 1009.67 1009.73 1009.59 1008.84 1008.45 1008.65 1008.42 1008.52 1007.94 1007.37 1007.36 1007.36 1007.15 1006.86 1006.80 1006.65
1013.21 1012.80 1012.32 1011.86 1011.55 1011.61 1011.31 1010.31 1008.93 1008.66 1008.49 1007.47 1007.08 1006.57 1005.50 1005.29 1004.81 1004.79 1005.09 1005.84 1006.72 1007.59 1008.00 1008.53 1008.26 1008.16 1008.67 1008.96 1009.38 1009.56 1009.73 1009.67 1009.51 1009.14 1008.94 1008.97 1008.84 1008.33 1007.58 1007.36 1007.05 1007.22 1007.30 1007.28 1007.29
1012.68 1012.29 1011.82 1011.43 1011.66 1011.07 1010.40 1008.45 1008.65 1009.12 1008.05 1006.59 1005.93 1004.61 1004.63 1004.51 1004.43 1004.10 1004.62 1005.43 1006.40 1007.28 1008.06 1008.18 1007.81 1007.94 1008.17 1008.44 1008.95 1009.33 1009.00 1009.28 1009.63 1010.13 1010.29 1009.88 1009.85 1009.06 1008.32 1008.12 1007.81 1007.58 1007.83 1007.91 1007.70
1012.17 1011.68 1011.29 1011.21 1011.10 1010.61 1008.49 1008.03 1008.27 1008.68 1007.13 1005.17 1004.43 1003.21 1003.55 1004.10 1003.96 1004.32 1004.26 1004.95 1006.07 1006.91 1007.78 1007.96 1007.55 1007.41 1007.72 1007.90 1008.39 1008.56 1008.75 1009.40 1009.85 1010.63 1010.86 1010.97 1011.18 1009.45 1009.08 1008.83 1008.60 1008.66 1008.77 1008.59 1008.40
1011.53 1010.97 1010.67 1010.47 1010.56 1008.67 1008.15 1008.34 1008.15 1008.00 1005.74 1004.13 1003.34 1003.41 1003.71 1003.87 1003.88 1004.33 1004.57 1004.95 1006.03 1006.96 1007.49 1007.62 1007.20 1007.04 1007.09 1007.57 1008.01 1008.27 1009.26 1010.18 1011.21 1011.74 1012.01 1011.64 1011.65 1010.71 1009.94 1009.71 1009.39 1009.76 1009.87 1009.62 1009.25
1010.63 1009.98 1010.08 1009.70 1008.73 1007.73 1008.28 1008.35 1007.93 1006.49 1004.81 1003.92 1003.47 1003.33 1003.58 1003.93 1004.11 1004.35 1005.17 1005.94 1006.68 1007.48 1007.90 1007.87 1007.56 1007.15 1007.16 1007.82 1008.23 1008.84 1010.11 1011.91 1012.84 1013.27 1013.11 1012.34 1012.17 1010.77 1010.33 1010.22 1010.17 1010.59 1010.54 1010.23 1010.05
1009.81 1008.67 1008.17 1008.16 1007.62 1007.77 1007.88 1007.65 1007.04 1005.75 1004.74 1003.79 1003.59 1003.63 1003.75 1003.94 1004.40 1004.76 1005.51 1006.42 1006.85 1007.27 1008.04 1008.40 1008.36 1007.91 1007.51 1007.93 1008.56 1009.61 1010.64 1012.41 1013.50 1014.33 1014.01 1013.19 1012.21 1010.91 1010.90 1010.79 1010.57 1010.66 1010.66 1010.44 1010.29
1009.11 1008.37 1008.09 1006.57 1007.30 1007.53 1007.60 1007.36 1006.71 1005.88 1005.26 1004.20 1003.68 1003.99 1004.37 1004.38 1004.75 1005.29 1006.04 1006.72 1007.17 1007.30 1007.95 1008.58 1008.81 1008.38 1008.14 1008.26 1008.96 1010.22 1011.32 1012.41 1013.84 1015.11 1014.97 1013.67 1012.29 1011.51 1011.35 1011.09 1010.94 1010.92 1010.84 1010.83 1010.56
1009.58 1008.54 1006.86 1005.87 1006.62 1007.31 1007.47 1007.15 1006.52 1006.05 1005.16 1004.20 1003.82 1004.25 1004.75 1005.20 1005.54 1005.96 1006.74 1007.21 1007.51 1007.64 1007.60 1008.77 1009.42 1009.43 1009.14 1009.08 1009.78 1010.39 1011.76 1013.16 1014.58 1015.87 1015.83 1014.46 1013.34 1011.97 1011.73 1011.50 1011.34 1011.26 1011.30 1011.09 1010.54
1009.49 1008.35 1006.27 1005.87 1006.11 1006.80 1007.07 1007.08 1006.55 1006.02 1005.33 1004.91 1004.36 1004.77 1005.14 1005.48 1005.94 1006.55 1007.18 1007.48 1007.54 1008.30 1008.46 1009.43 1010.11 1010.81 1010.57 1011.01 1011.36 1011.92 1012.76 1014.16 1015.15 1015.98 1015.84 1015.22 1013.18 1011.70 1011.43 1011.40 1011.48 1011.52 1011.24 1010.88 1010.69
1010.04 1008.48 1006.36 1006.09 1006.70 1006.98 1006.90 1006.69 1006.06 1004.84 1004.27 1004.65 1004.40 1005.02 1005.52 1006.11 1006.87 1007.27 1007.56 1007.67 1007.76 1008.26 1009.66 1010.37 1011.14 1012.02 1012.33 1012.31 1012.27 1012.74 1013.58 1014.52 1015.60 1016.50 1016.23 1015.62 1013.50 1011.76 1011.57 1011.54 1011.57 1011.49 1011.18 1010.84 1010.72
1010.51 1009.03 1006.39 1006.05 1006.81 1006.63 1006.40 1005.85 1005.13 1004.47 1004.39 1004.65 1005.16 1005.40 1005.89 1006.99 1007.69 1007.91 1008.17 1008.59 1008.47 1009.09 1010.03 1010.75 1012.23 1013.20 1013.45 1013.50 1013.29 1013.77 1014.24 1015.07 1015.93 1016.68 1016.77 1016.21 1013.93 1012.34 1011.94 1011.56 1011.43 1011.55 1011.36 1011.17 1010.87
1011.02 1009.71 1007.59 1006.77 1006.97 1006.82 1006.47 1005.79 1005.08 1004.75 1005.11 1005.41 1005.98 1006.12 1006.83 1007.80 1008.26 1008.84 1009.21 1009.61 1009.51 1009.96 1010.47 1010.95 1012.91 1013.53 1013.97 1014.14 1014.36 1014.61 1014.86 1015.36 1016.16 1017.46 1016.67 1015.46 1014.05 1013.13 1012.18 1011.77 1011.51 1011.54 1011.81 1011.67 1011.64
1011.21 1010.48 1009.54 1008.28 1007.82 1007.24 1006.89 1006.03 1005.42 1005.48 1005.74 1006.08 1006.78 1007.08 1007.61 1008.71 1009.24 1009.76 1010.08 1010.48 1010.76 1011.11 1011.66 1012.34 1013.91 1014.38 1014.48 1014.57 1014.74 1014.77 1014.86 1015.31 1015.88 1015.87 1015.92 1014.73 1014.06 1013.60 1012.69 1012.23 1011.82 1011.84 1012.00 1012.02 1011.93
1011.70 1011.35 1010.18 1009.13 1008.11 1007.43 1006.82 1006.20 1006.03 1006.44 1006.62 1007.05 1007.54 1008.14 1008.25 1009.00 1009.29 1010.11 1010.42 1010.90 1011.32 1012.13 1012.89 1013.71 1014.89 1015.22 1015.36 1015.12 1015.10 1014.97 1014.43 1014.59 1014.88 1014.97 1014.85 1014.29 1013.54 1012.50 1011.93 1011.85 1011.89 1011.90 1011.96 1012.03 1012.03
1011.84 1011.50 1011.27 1009.73 1008.58 1007.82 1007.05 1006.61 1006.57 1006.75 1007.59 1007.60 1008.16 1008.66 1009.23 1009.66 1009.83 1010.19 1010.58 1011.13 1011.49 1012.43 1013.65 1014.56 1015.57 1016.29 1016.09 1015.55 1015.20 1014.47 1013.14 1013.29 1013.50 1013.31 1013.25 1013.34 1012.49 1011.95 1011.93 1011.87 1011.91 1012.00 1011.82 1011.86 1011.97
Wind_Speed
15 14 13 12 10 12 11 9 8 9 10 11 10 10 9 10 10 9 11 14 12 14 8 7 5 5 2 3 1 3 4 3 5 5 4 1 6 4 4 4 3 3 2 3 15
16 15 14 13 12 11 11 10 10 8 9 9 9 9 9 8 9 17 10 15 16 9 6 12 11 17 4 4 2 4 4 9 6 5 2 5 2 3 6 8 3 2 6 8 12
16 15 14 13 13 12 11 11 9 8 7 8 7 8 6 5 5 14 25 30 20 15 3 4 8 8 6 4 5 4 5 6 4 6 3 3 9 4 3 4 1 2 4 5 5
15 16 15 13 13 13 12 11 10 9 8 6 6 3 5 2 7 2 4 25 22 11 8 7 5 7 6 6 5 3 6 4 6 2 4 5 3 6 4 7 7 3 2 5 9
14 15 15 15 13 12 12 12 11 9 8 6 3 3 2 2 13 7 4 17 15 10 12 9 7 7 6 7 5 4 3 4 6 5 7 3 7 7 7 11 10 7 4 7 7
14 14 14 15 15 13 11 12 12 10 8 6 4 3 2 5 5 5 9 17 15 10 8 9 9 6 6 4 8 7 7 8 3 7 5 4 9 9 7 8 8 6 8 7 9
13 14 15 14 14 15 12 13 10 10 7 6 5 5 5 18 4 3 8 5 15 8 11 5 6 6 6 4 3 2 3 3 6 6 8 7 7 6 11 5 8 9 9 8 10
14 13 14 14 15 16 16 14 13 10 7 5 6 3 10 6 3 4 2 6 5 3 4 5 5 4 1 2 4 4 3 1 4 6 4 9 7 7 8 1 7 9 9 9 9
15 13 13 15 15 16 16 13 14 10 6 7 4 1 12 5 4 6 6 8 7 4 2 6 5 2 2 5 4 6 2 4 4 5 3 3 4 7 4 3 8 9 10 10 9
17 17 14 14 14 14 13 14 4 6 8 5 3 2 7 3 4 7 4 15 6 7 1 4 3 4 3 4 7 6 4 3 4 1 2 2 6 8 3 3 7 10 9 8 9
18 16 18 14 12 10 5 2 2 1 6 11 7 5 3 8 5 4 7 5 7 4 6 4 5 7 6 6 5 5 3 3 3 4 2 5 5 11 7 4 8 7 6 9 10
20 18 17 13 12 8 3 5 5 2 4 17 5 8 7 3 2 5 7 6 5 4 5 5 4 6 4 5 4 2 2 4 6 5 5 6 6 7 7 6 5 7 8 8 9
19 18 17 14 11 3 9 13 3 6 2 3 8 6 6 7 5 7 8 5 5 4 4 6 2 8 5 4 4 3 4 4 7 3 2 3 5 3 3 4 5 3 5 5 8
20 18 16 12 3 1 6 9 12 0 0 4 5 7 5 4 1 5 7 7 2 8 8 3 3 5 4 3 7 2 9 9 6 4 3 2 6 5 3 7 6 9 8 8 10
23 19 15 6 3 3 2 1 9 3 2 8 4 1 5 7 6 1 4 5 6 5 7 6 2 4 3 6 6 9 4 4 4 4 4 2 2 8 2 4 4 8 11 12 9
25 22 13 3 4 10 4 2 2 1 2 3 5 6 6 3 2 4 4 7 3 5 3 6 2 2 4 3 3 1 4 7 5 4 1 5 5 5 2 3 5 6 7 10 12
29 25 9 5 5 3 3 4 2 2 2 5 4 5 6 5 3 4 7 5 5 5 2 2 1 2 2 3 3 5 6 3 4 3 5 1 1 8 3 4 3 5 8 8 8
31 25 6 9 5 3 2 2 2 2 2 2 3 6 4 5 2 3 7 5 3 5 4 5 3 3 1 4 7 2 7 7 6 5 4 2 6 4 2 3 4 5 4 7 9
26 2 3 5 10 2 3 2 2 1 8 6 7 5 3 3 4 5 3 6 2 3 5 4 2 3 7 3 3 3 2 3 7 4 2 4 5 3 3 4 6 7 8 7 5
5 4 4 5 12 3 3 1 3 2 7 8 2 1 5 3 4 5 4 1 4 1 0 3 3 3 3 1 7 4 4 4 4 4 4 4 4 5 4 2 3 8 7 7 7
2 3 3 4 2 3 3 2 4 10 11 4 2 2 3 4 4 3 2 1 2 3 6 4 4 2 1 4 2 4 2 6 4 4 5 2 7 5 7 4 4 6 7 7 7
3 1 2 1 2 1 2 3 9 14 1 6 4 3 3 3 4 2 4 3 3 3 4 0 5 3 2 6 2 1 3 4 6 4 2 2 7 2 6 2 4 7 9 9 6
3 4 4 2 2 2 4 5 4 1 3 3 3 3 3 3 5 3 5 6 6 4 6 6 3 3 4 6 4 5 2 5 5 3 5 5 6 1 7 7 4 5 9 8 8
2 3 4 3 1 1 3 5 2 4 5 6 4 5 5 5 7 4 3 6 5 4 9 8 3 5 7 4 3 1 3 2 5 3 4 7 6 6 11 13 14 12 6 4 5
1 2 1 2 1 1 5 3 2 3 3 6 5 4 5 4 4 4 3 3 6 5 5 5 4 2 2 3 3 5 7 6 8 7 8 4 11 8 10 10 9 4 1 2 4
2 3 5 3 3 2 1 1 2 4 3 2 6 1 3 6 6 7 6 2 4 3 3 3 3 2 2 3 5 6 10 9 9 10 9 13 17 12 11 4 2 2 2 2 4
2 2 2 3 4 1 2 1 2 7 6 5 8 6 6 5 4 5 4 5 6 7 3 4 6 4 4 1 4 7 8 9 6 6 6 6 8 4 4 3 2 6 5 4 5
Wind_Direction
329 329 327 325 331 327 333 334 315 300 290 282 278 278 280 278 282 263 235 218 190 241 181 117 106 134 333 267 252 138 80 200 219 175 224 322 22 303 277 284 4 333 251 285 125
328 329 329 327 329 327 327 335 325 306 289 287 285 282 280 288 281 252 230 227 218 207 159 151 147 144 215 222 237 191 143 217 197 214 165 315 354 324 1 335 33 352 61 85 124
328 327 328 329 330 326 321 325 329 310 286 273 273 272 279 287 285 247 211 212 205 206 165 131 121 133 174 153 203 188 222 188 241 231 119 328 325 294 326 323 81 63 89 107 110
324 327 328 328 325 325 321 320 320 315 313 276 268 277 272 232 211 299 161 199 188 180 139 140 135 131 149 180 187 204 211 230 253 187 158 178 304 321 266 239 276 226 236 155 169
326 322 324 323 319 323 318 317 314 312 308 297 250 245 237 221 253 273 305 155 159 167 167 156 150 133 169 183 147 187 230 222 241 268 285 285 210 224 256 267 288 278 195 183 192
316 318 317 317 314 317 313 311 309 305 303 290 214 203 188 250 243 306 129 148 161 154 159 157 176 168 149 175 169 205 200 232 260 264 220 231 282 138 267 256 283 260 249 221 191
319 318 316 316 313 314 309 307 300 294 287 271 200 202 244 243 11 43 121 169 163 169 166 175 161 152 142 149 226 184 219 278 214 225 228 164 285 208 236 248 251 259 256 235 244
325 323 321 320 314 313 312 307 300 285 263 229 189 216 252 246 229 175 198 94 157 82 111 148 114 95 153 131 32 155 50 69 263 164 239 155 259 273 258 256 274 273 267 268 259
321 322 320 317 314 314 312 303 296 271 223 168 142 181 265 308 217 185 166 137 126 49 7 133 111 165 100 129 39 3 192 193 287 207 134 135 244 267 307 266 262 260 253 249 261
320 320 317 314 307 310 315 308 265 100 130 155 233 288 261 218 173 142 177 138 130 127 38 138 126 135 83 119 190 188 196 240 212 148 58 133 247 271 287 316 282 293 281 253 240
314 312 318 316 308 311 345 340 130 144 211 193 193 247 314 310 141 143 150 132 111 139 154 201 118 191 178 174 157 153 162 221 237 261 9 264 263 275 288 302 290 288 275 260 250
310 311 318 311 297 289 170 237 232 145 274 223 242 268 273 247 275 111 121 136 129 154 118 64 198 207 144 135 139 135 181 254 289 245 149 273 261 276 281 255 262 310 337 306 302
308 310 314 303 302 238 209 233 300 9 213 200 193 215 227 165 189 181 127 133 127 125 155 142 239 146 145 141 151 181 174 225 226 7 270 344 309 328 314 308 319 8 321 309 284
309 311 307 308 283 210 236 243 231 70 43 188 217 256 169 191 243 170 160 138 108 169 145 182 229 152 142 191 152 237 210 217 242 111 217 69 275 306 294 311 333 334 351 338 331
316 314 307 270 275 227 268 351 146 110 130 152 168 139 137 151 156 191 182 59 144 146 104 242 132 119 143 211 150 222 149 220 182 155 114 356 50 265 308 278 320 347 352 344 335
317 316 312 242 203 240 321 356 147 189 176 205 133 155 128 174 107 106 113 67 132 106 68 205 282 139 186 105 180 55 105 48 51 85 44 224 166 281 247 331 317 12 355 358 354
318 313 289 167 220 148 174 177 73 189 293 147 134 138 141 148 137 117 141 116 140 115 130 12 253 280 167 128 26 74 60 358 351 4 221 29 47 235 305 359 21 52 20 12 14
322 314 205 212 221 274 212 54 214 4 173 277 118 120 131 127 118 135 121 135 123 107 122 158 324 337 103 164 169 104 149 159 200 196 243 313 238 236 73 90 93 89 65 39 29
322 295 165 241 202 31 79 54 275 34 251 318 108 115 90 39 87 85 74 140 68 171 139 139 157 313 49 41 78 170 83 156 101 19 54 249 300 13 99 50 39 37 31 5 13
317 310 259 114 151 129 80 269 334 11 308 313 78 97 133 155 114 108 139 244 122 354 101 172 109 355 339 32 37 97 146 71 11 147 232 274 268 222 173 138 7 21 6 333 337
348 335 310 132 142 68 146 163 326 236 228 214 142 88 106 137 90 86 97 38 106 71 71 112 108 251 31 32 128 18 48 54 111 140 180 234 251 215 174 167 3 331 318 306 303
345 337 311 123 79 94 79 181 211 264 176 240 101 77 74 74 83 95 125 117 97 109 77 38 123 107 96 308 233 130 140 126 124 221 197 212 274 195 155 301 301 304 308 317 285
335 278 298 113 184 240 181 230 231 206 33 67 66 70 69 85 89 68 77 6 34 88 154 181 35 69 7 356 11 80 47 101 101 75 208 167 255 250 295 304 299 296 319 304 309
332 316 326 51 96 211 46 300 224 44 55 64 87 72 81 64 26 112 82 13 12 73 72 85 88 148 189 182 157 260 189 147 112 156 230 228 266 301 305 314 317 327 347 60 43
119 287 113 284 285 254 187 260 172 83 69 34 36 56 135 106 66 96 89 113 24 10 48 90 131 160 241 194 186 217 235 198 193 196 198 226 237 234 245 254 262 239 223 10 17
40 16 345 282 285 244 191 284 133 131 34 46 111 44 84 132 170 180 129 132 174 43 71 14 142 125 270 229 220 251 248 222 216 228 245 250 269 248 260 223 182 198 225 314 340
320 327 113 293 331 64 233 180 129 129 42 58 136 97 73 143 123 125 112 131 154 141 119 105 131 116 248 222 294 270 229 208 208 204 185 214 232 192 178 218 233 244 253 315 320